This is the latest recevied weather packets stored in our database for station/object DB0ASF-4. If no packets are shown the sender has not sent any weather packets the latest 10 day(s).
| Time | Temp. | Humidity | Pressure | Rain* | Wind** | Luminosity | Snow |
|---|---|---|---|---|---|---|---|
| 1777553956 | 23.33° C | 18% | 1032.9 hPa | 0 mm | - | - | - |
| 1777553356 | 22.22° C | 19% | 1032.8 hPa | 0 mm | - | - | - |
| 1777552756 | 21.11° C | 19% | 1032.8 hPa | 0 mm | - | - | - |
| 1777552156 | 20.56° C | 19% | 1033 hPa | 0 mm | - | - | - |
| 1777551556 | 20° C | 20% | 1033 hPa | 0 mm | - | - | - |
| 1777550956 | 20° C | 20% | 1033.1 hPa | 0 mm | - | - | - |
| 1777550356 | 20° C | 20% | 1033.1 hPa | 0 mm | - | - | - |
| 1777549756 | 20° C | 20% | 1033.4 hPa | 0 mm | - | - | - |
| 1777549156 | 19.44° C | 20% | 1033.5 hPa | 0 mm | - | - | - |
| 1777548556 | 18.89° C | 20% | 1033.5 hPa | 0 mm | - | - | - |
| 1777547956 | 18.89° C | 20% | 1033.6 hPa | 0 mm | - | - | - |
| 1777547356 | 18.33° C | 20% | 1033.9 hPa | 0 mm | - | - | - |
| 1777546756 | 17.78° C | 22% | 1034 hPa | 0 mm | - | - | - |
| 1777546156 | 17.78° C | 22% | 1034.1 hPa | 0 mm | - | - | - |
| 1777545556 | 17.78° C | 23% | 1034 hPa | 0 mm | - | - | - |
| 1777544956 | 17.22° C | 24% | 1034.1 hPa | 0 mm | - | - | - |
| 1777544356 | 16.67° C | 24% | 1034.4 hPa | 0 mm | - | - | - |
| 1777543756 | 16.11° C | 25% | 1034.5 hPa | 0 mm | - | - | - |
| 1777543156 | 15.56° C | 25% | 1034.5 hPa | 0 mm | - | - | - |
| 1777542556 | 15° C | 26% | 1034.5 hPa | 0 mm | - | - | - |
| 1777541956 | 14.44° C | 27% | 1034.5 hPa | 0 mm | - | - | - |
| 1777541356 | 13.89° C | 29% | 1034.5 hPa | 0 mm | - | - | - |
| 1777540756 | 13.33° C | 30% | 1034.9 hPa | 0 mm | - | - | - |
| 1777540156 | 13.33° C | 30% | 1035 hPa | 0 mm | - | - | - |
| 1777539556 | 12.78° C | 31% | 1035 hPa | 0 mm | - | - | - |
* Rain latest hour (hover to see other rain measurements)
** Current wind speed in m/s (hover to see current wind gust speed)